Time,TemperatureF,DewpointF,PressureIn,WindDirection,WindDirectionDegrees,WindSpeedMPH,WindSpeedGustMPH,Humidity,HourlyPrecipIn,Conditions,Clouds,dailyrainin,SoftwareType,DateUTC
2013-01-21 00:00:00,-2.7,-10.1,30.38,WNW,283,6.0,11.0,70,0.00,,,0.00,VWS V14.01,2013-01-21 06:00:00,
2013-01-21 00:05:00,-2.8,-10.1,30.38,West,276,2.0,9.0,70,0.00,,,0.00,VWS V14.01,2013-01-21 06:05:00,
2013-01-21 00:10:00,-2.9,-10.2,30.38,WNW,297,1.0,9.0,70,0.00,,,0.00,VWS V14.01,2013-01-21 06:10:00,
2013-01-21 00:15:00,-2.9,-10.2,30.38,West,272,6.0,9.0,70,0.00,,,0.00,VWS V14.01,2013-01-21 06:15:00,
2013-01-21 00:20:00,-3.0,-10.3,30.37,West,275,4.0,9.0,70,0.00,,,0.00,VWS V14.01,2013-01-21 06:20:00,
2013-01-21 00:25:00,-3.1,-10.4,30.37,West,274,4.0,9.0,70,0.00,,,0.00,VWS V14.01,2013-01-21 06:25:00,
2013-01-21 00:30:00,-3.1,-10.4,30.37,West,277,1.0,6.0,70,0.00,,,0.00,VWS V14.01,2013-01-21 06:30:00,
2013-01-21 00:35:00,-3.2,-10.5,30.37,NW,320,3.0,7.0,70,0.00,,,0.00,VWS V14.01,2013-01-21 06:35:00,
2013-01-21 00:40:00,-3.2,-10.5,30.37,WNW,288,4.0,7.0,70,0.00,,,0.00,VWS V14.01,2013-01-21 06:40:00,
2013-01-21 00:45:00,-3.3,-10.3,30.37,West,279,5.0,8.0,71,0.00,,,0.00,VWS V14.01,2013-01-21 06:45:00,
2013-01-21 00:50:00,-3.3,-10.3,30.37,West,279,2.0,9.0,71,0.00,,,0.00,VWS V14.01,2013-01-21 06:50:00,
2013-01-21 00:56:00,-3.3,-10.3,30.37,West,266,3.0,9.0,71,0.00,,,0.00,VWS V14.01,2013-01-21 06:56:00,
2013-01-21 01:01:00,-3.4,-10.4,30.37,NW,309,3.0,7.0,71,0.00,,,0.00,VWS V14.01,2013-01-21 07:01:00,
2013-01-21 01:06:00,-3.4,-10.4,30.37,WNW,291,4.0,7.0,71,0.00,,,0.00,VWS V14.01,2013-01-21 07:06:00,
2013-01-21 01:11:00,-3.5,-10.2,30.37,WNW,285,6.0,7.0,72,0.00,,,0.00,VWS V14.01,2013-01-21 07:11:00,
2013-01-21 01:17:00,-3.7,-10.4,30.37,WNW,285,5.0,9.0,72,0.00,,,0.00,VWS V14.01,2013-01-21 07:17:00,
2013-01-21 01:22:00,-3.9,-10.9,30.37,West,273,1.0,9.0,71,0.00,,,0.00,VWS V14.01,2013-01-21 07:22:00,
2013-01-21 01:27:00,-3.9,-10.6,30.37,West,276,7.0,10.0,72,0.00,,,0.00,VWS V14.01,2013-01-21 07:27:00,
2013-01-21 01:32:00,-4.0,-11.0,30.37,West,272,4.0,11.0,71,0.00,,,0.00,VWS V14.01,2013-01-21 07:32:00,
2013-01-21 01:37:00,-4.1,-11.1,30.37,West,272,3.0,11.0,71,0.00,,,0.00,VWS V14.01,2013-01-21 07:37:00,
2013-01-21 01:42:00,-4.3,-11.3,30.38,West,266,3.0,11.0,71,0.00,,,0.00,VWS V14.01,2013-01-21 07:42:00,
2013-01-21 01:47:00,-4.4,-11.7,30.38,WNW,282,5.0,13.0,70,0.00,,,0.00,VWS V14.01,2013-01-21 07:47:00,
2013-01-21 01:52:00,-4.5,-11.8,30.38,SW,228,5.0,13.0,70,0.00,,,0.00,VWS V14.01,2013-01-21 07:52:00,
2013-01-21 01:57:00,-4.6,-11.9,30.38,WNW,284,1.0,13.0,70,0.00,,,0.00,VWS V14.01,2013-01-21 07:57:00,
2013-01-21 02:02:00,-4.8,-12.1,30.38,West,281,5.0,9.0,70,0.00,,,0.00,VWS V14.01,2013-01-21 08:02:00,
2013-01-21 02:08:00,-4.8,-12.1,30.38,West,267,9.0,10.0,70,0.00,,,0.00,VWS V14.01,2013-01-21 08:08:00,
2013-01-21 02:13:00,-4.9,-12.2,30.38,West,273,7.0,10.0,70,0.00,,,0.00,VWS V14.01,2013-01-21 08:13:00,
2013-01-21 02:18:00,-5.0,-12.3,30.38,WNW,301,4.0,10.0,70,0.00,,,0.00,VWS V14.01,2013-01-21 08:18:00,
2013-01-21 02:23:00,-5.1,-12.4,30.39,West,273,2.0,10.0,70,0.00,,,0.00,VWS V14.01,2013-01-21 08:23:00,
2013-01-21 02:28:00,-5.2,-12.5,30.39,West,272,4.0,12.0,70,0.00,,,0.00,VWS V14.01,2013-01-21 08:28:00,
2013-01-21 02:33:00,-5.3,-12.8,30.39,West,275,5.0,11.0,69,0.00,,,0.00,VWS V14.01,2013-01-21 08:33:00,
2013-01-21 02:38:00,-5.4,-12.9,30.39,West,273,7.0,11.0,69,0.00,,,0.00,VWS V14.01,2013-01-21 08:38:00,
2013-01-21 02:43:00,-5.5,-13.3,30.39,West,276,2.0,11.0,68,0.00,,,0.00,VWS V14.01,2013-01-21 08:43:00,
2013-01-21 02:48:00,-5.6,-13.1,30.39,West,277,6.0,11.0,69,0.00,,,0.00,VWS V14.01,2013-01-21 08:48:00,
2013-01-21 02:53:00,-5.7,-13.5,30.39,WNW,299,2.0,11.0,68,0.00,,,0.00,VWS V14.01,2013-01-21 08:53:00,
2013-01-21 02:58:00,-5.8,-13.6,30.39,West,271,1.0,11.0,68,0.00,,,0.00,VWS V14.01,2013-01-21 08:58:00,
2013-01-21 03:03:00,-5.9,-13.7,30.39,WNW,284,6.0,8.0,68,0.00,,,0.00,VWS V14.01,2013-01-21 09:03:00,
2013-01-21 03:08:00,-6.0,-13.8,30.40,West,280,3.0,8.0,68,0.00,,,0.00,VWS V14.01,2013-01-21 09:08:00,
2013-01-21 03:13:00,-6.1,-13.6,30.40,West,275,7.0,13.0,69,0.00,,,0.00,VWS V14.01,2013-01-21 09:13:00,
2013-01-21 03:18:00,-6.3,-13.8,30.40,NW,312,1.0,14.0,69,0.00,,,0.00,VWS V14.01,2013-01-21 09:18:00,
2013-01-21 03:23:00,-6.4,-13.9,30.40,West,278,2.0,14.0,69,0.00,,,0.00,VWS V14.01,2013-01-21 09:23:00,
2013-01-21 03:28:00,-6.7,-14.5,30.40,WNW,288,7.0,14.0,68,0.00,,,0.00,VWS V14.01,2013-01-21 09:28:00,
2013-01-21 03:33:00,-6.8,-14.6,30.40,West,262,3.0,8.0,68,0.00,,,0.00,VWS V14.01,2013-01-21 09:33:00,
2013-01-21 03:39:00,-7.0,-14.8,30.40,WSW,251,0.0,10.0,68,0.00,,,0.00,VWS V14.01,2013-01-21 09:39:00,
2013-01-21 03:44:00,-7.1,-14.6,30.40,WNW,288,5.0,10.0,69,0.00,,,0.00,VWS V14.01,2013-01-21 09:44:00,
2013-01-21 03:49:00,-7.2,-14.9,30.40,WNW,291,8.0,10.0,68,0.00,,,0.00,VWS V14.01,2013-01-21 09:49:00,
2013-01-21 03:54:00,-7.3,-15.1,30.40,West,276,1.0,10.0,68,0.00,,,0.00,VWS V14.01,2013-01-21 09:54:00,
2013-01-21 03:59:00,-7.5,-15.0,30.40,West,270,3.0,10.0,69,0.00,,,0.00,VWS V14.01,2013-01-21 09:59:00,
2013-01-21 04:04:00,-7.6,-15.1,30.40,NNW,327,2.0,8.0,69,0.00,,,0.00,VWS V14.01,2013-01-21 10:04:00,
2013-01-21 04:09:00,-7.7,-15.1,30.40,WSW,252,5.0,10.0,69,0.00,,,0.00,VWS V14.01,2013-01-21 10:09:00,
2013-01-21 04:14:00,-7.8,-15.2,30.40,West,280,4.0,10.0,69,0.00,,,0.00,VWS V14.01,2013-01-21 10:14:00,
2013-01-21 04:19:00,-8.0,-15.4,30.40,WNW,282,0.0,11.0,69,0.00,,,0.00,VWS V14.01,2013-01-21 10:19:00,
2013-01-21 04:24:00,-8.1,-15.5,30.40,WSW,257,5.0,12.0,69,0.00,,,0.00,VWS V14.01,2013-01-21 10:24:00,
2013-01-21 04:29:00,-8.3,-15.7,30.40,West,262,6.0,12.0,69,0.00,,,0.00,VWS V14.01,2013-01-21 10:29:00,
2013-01-21 04:34:00,-8.4,-15.8,30.40,West,281,11.0,12.0,69,0.00,,,0.00,VWS V14.01,2013-01-21 10:34:00,
2013-01-21 04:39:00,-8.6,-16.0,30.40,West,281,12.0,12.0,69,0.00,,,0.00,VWS V14.01,2013-01-21 10:39:00,
2013-01-21 04:44:00,-8.7,-16.1,30.40,West,278,3.0,12.0,69,0.00,,,0.00,VWS V14.01,2013-01-21 10:44:00,
2013-01-21 04:49:00,-8.8,-16.2,30.40,WNW,290,4.0,14.0,69,0.00,,,0.00,VWS V14.01,2013-01-21 10:49:00,
2013-01-21 04:54:00,-8.9,-16.3,30.40,WNW,289,0.0,14.0,69,0.00,,,0.00,VWS V14.01,2013-01-21 10:54:00,
2013-01-21 05:00:00,-8.9,-16.0,30.40,West,279,6.0,6.0,70,0.00,,,0.00,VWS V14.01,2013-01-21 11:00:00,
2013-01-21 05:05:00,-9.0,-16.1,30.40,WNW,283,4.0,10.0,70,0.00,,,0.00,VWS V14.01,2013-01-21 11:05:00,
2013-01-21 05:10:00,-9.0,-16.1,30.40,West,278,1.0,10.0,70,0.00,,,0.00,VWS V14.01,2013-01-21 11:10:00,
2013-01-21 05:15:00,-9.1,-16.2,30.40,West,274,5.0,10.0,70,0.00,,,0.00,VWS V14.01,2013-01-21 11:15:00,
2013-01-21 05:20:00,-9.1,-15.9,30.40,WNW,287,0.0,10.0,71,0.00,,,0.00,VWS V14.01,2013-01-21 11:20:00,
2013-01-21 05:25:00,-9.3,-16.4,30.40,West,273,7.0,10.0,70,0.00,,,0.00,VWS V14.01,2013-01-21 11:25:00,
2013-01-21 05:30:00,-9.4,-16.5,30.40,WNW,283,3.0,3.0,70,0.00,,,0.00,VWS V14.01,2013-01-21 11:30:00,
2013-01-21 05:35:00,-9.4,-16.2,30.40,WNW,295,7.0,12.0,71,0.00,,,0.00,VWS V14.01,2013-01-21 11:35:00,
2013-01-21 05:40:00,-9.5,-16.6,30.41,North,354,1.0,12.0,70,0.00,,,0.00,VWS V14.01,2013-01-21 11:40:00,
2013-01-21 05:45:00,-9.5,-16.6,30.41,West,279,5.0,12.0,70,0.00,,,0.00,VWS V14.01,2013-01-21 11:45:00,
2013-01-21 05:50:00,-9.6,-16.7,30.41,West,266,4.0,12.0,70,0.00,,,0.00,VWS V14.01,2013-01-21 11:50:00,
2013-01-21 05:55:00,-9.7,-16.8,30.41,West,264,7.0,12.0,70,0.00,,,0.00,VWS V14.01,2013-01-21 11:55:00,
2013-01-21 06:01:00,-9.8,-16.9,30.41,WSW,246,7.0,9.0,70,0.00,,,0.00,VWS V14.01,2013-01-21 12:01:00,
2013-01-21 06:06:00,-9.9,-17.0,30.41,West,274,5.0,10.0,70,0.00,,,0.00,VWS V14.01,2013-01-21 12:06:00,
2013-01-21 06:11:00,-9.9,-17.0,30.41,West,281,2.0,10.0,70,0.00,,,0.00,VWS V14.01,2013-01-21 12:11:00,
2013-01-21 06:16:00,-9.9,-17.0,30.41,West,272,1.0,10.0,70,0.00,,,0.00,VWS V14.01,2013-01-21 12:16:00,
2013-01-21 06:21:00,-9.9,-17.0,30.41,NW,310,0.0,10.0,70,0.00,,,0.00,VWS V14.01,2013-01-21 12:21:00,
2013-01-21 06:26:00,-10.0,-17.1,30.41,WNW,288,2.0,10.0,70,0.00,,,0.00,VWS V14.01,2013-01-21 12:26:00,
2013-01-21 06:31:00,-10.1,-17.2,30.41,West,274,0.0,7.0,70,0.00,,,0.00,VWS V14.01,2013-01-21 12:31:00,
2013-01-21 06:36:00,-10.2,-17.6,30.41,WNW,300,2.0,8.0,69,0.00,,,0.00,VWS V14.01,2013-01-21 12:36:00,
2013-01-21 06:41:00,-10.2,-17.6,30.42,WNW,283,6.0,8.0,69,0.00,,,0.00,VWS V14.01,2013-01-21 12:41:00,
2013-01-21 06:46:00,-10.3,-17.6,30.41,WNW,288,3.0,11.0,69,0.00,,,0.00,VWS V14.01,2013-01-21 12:46:00,
2013-01-21 06:51:00,-10.4,-17.5,30.41,West,278,10.0,15.0,70,0.00,,,0.00,VWS V14.01,2013-01-21 12:51:00,
2013-01-21 06:56:00,-10.4,-17.5,30.41,WSW,254,0.0,15.0,70,0.00,,,0.00,VWS V14.01,2013-01-21 12:56:00,
2013-01-21 07:01:00,-10.5,-17.6,30.41,NW,311,3.0,9.0,70,0.00,,,0.00,VWS V14.01,2013-01-21 13:01:00,
2013-01-21 07:06:00,-10.6,-17.7,30.41,WSW,257,6.0,10.0,70,0.00,,,0.00,VWS V14.01,2013-01-21 13:06:00,
2013-01-21 07:12:00,-10.7,-17.8,30.42,NW,306,0.0,11.0,70,0.00,,,0.00,VWS V14.01,2013-01-21 13:12:00,
2013-01-21 07:17:00,-10.7,-18.0,30.41,WNW,284,6.0,11.0,69,0.00,,,0.00,VWS V14.01,2013-01-21 13:17:00,
2013-01-21 07:22:00,-10.7,-17.8,30.42,West,263,1.0,11.0,70,0.00,,,0.00,VWS V14.01,2013-01-21 13:22:00,
2013-01-21 07:27:00,-10.7,-17.8,30.42,West,280,0.0,11.0,70,0.00,,,0.00,VWS V14.01,2013-01-21 13:27:00,
2013-01-21 07:32:00,-10.8,-17.9,30.42,WNW,286,6.0,8.0,70,0.00,,,0.00,VWS V14.01,2013-01-21 13:32:00,
2013-01-21 07:37:00,-10.8,-17.9,30.42,WSW,237,5.0,11.0,70,0.00,,,0.00,VWS V14.01,2013-01-21 13:37:00,
2013-01-21 07:42:00,-10.8,-17.9,30.42,WSW,258,3.0,11.0,70,0.00,,,0.00,VWS V14.01,2013-01-21 13:42:00,
2013-01-21 07:47:00,-10.8,-17.6,30.42,West,274,2.0,11.0,71,0.00,,,0.00,VWS V14.01,2013-01-21 13:47:00,
2013-01-21 07:52:00,-10.9,-17.7,30.42,WNW,291,0.0,11.0,71,0.00,,,0.00,VWS V14.01,2013-01-21 13:52:00,
2013-01-21 07:57:00,-10.9,-17.7,30.42,West,278,6.0,11.0,71,0.00,,,0.00,VWS V14.01,2013-01-21 13:57:00,
2013-01-21 08:02:00,-10.9,-17.7,30.42,West,270,8.0,8.0,71,0.00,,,0.00,VWS V14.01,2013-01-21 14:02:00,
2013-01-21 08:07:00,-10.8,-17.6,30.42,West,271,4.0,14.0,71,0.00,,,0.00,VWS V14.01,2013-01-21 14:07:00,
2013-01-21 08:12:00,-10.7,-17.5,30.42,NW,313,0.0,14.0,71,0.00,,,0.00,VWS V14.01,2013-01-21 14:12:00,
2013-01-21 08:17:00,-10.6,-17.4,30.42,West,281,3.0,14.0,71,0.00,,,0.00,VWS V14.01,2013-01-21 14:17:00,
2013-01-21 08:23:00,-10.5,-17.3,30.42,WNW,299,5.0,14.0,71,0.00,,,0.00,VWS V14.01,2013-01-21 14:23:00,
2013-01-21 08:28:00,-10.3,-17.1,30.42,WNW,303,1.0,14.0,71,0.00,,,0.00,VWS V14.01,2013-01-21 14:28:00,
2013-01-21 08:33:00,-10.2,-17.0,30.43,NW,306,8.0,8.0,71,0.00,,,0.00,VWS V14.01,2013-01-21 14:33:00,
2013-01-21 08:38:00,-10.1,-16.9,30.43,WNW,286,1.0,12.0,71,0.00,,,0.00,VWS V14.01,2013-01-21 14:38:00,
2013-01-21 08:43:00,-10.0,-16.8,30.43,WNW,295,3.0,12.0,71,0.00,,,0.00,VWS V14.01,2013-01-21 14:43:00,
2013-01-21 08:48:00,-9.8,-16.6,30.43,WNW,293,1.0,12.0,71,0.00,,,0.00,VWS V14.01,2013-01-21 14:48:00,
2013-01-21 08:53:00,-9.7,-16.8,30.43,West,278,3.0,12.0,70,0.00,,,0.00,VWS V14.01,2013-01-21 14:53:00,
2013-01-21 08:58:00,-9.6,-17.0,30.43,West,280,4.0,12.0,69,0.00,,,0.00,VWS V14.01,2013-01-21 14:58:00,
2013-01-21 09:03:00,-9.5,-16.9,30.44,WNW,293,0.0,6.0,69,0.00,,,0.00,VWS V14.01,2013-01-21 15:03:00,
2013-01-21 09:08:00,-9.3,-16.7,30.44,WNW,292,0.0,6.0,69,0.00,,,0.00,VWS V14.01,2013-01-21 15:08:00,
2013-01-21 09:13:00,-9.0,-16.4,30.44,WNW,284,4.0,8.0,69,0.00,,,0.00,VWS V14.01,2013-01-21 15:13:00,
2013-01-21 09:18:00,-8.9,-16.6,30.44,WNW,300,1.0,8.0,68,0.00,,,0.00,VWS V14.01,2013-01-21 15:18:00,
2013-01-21 09:23:00,-8.8,-16.5,30.44,NW,310,2.0,8.0,68,0.00,,,0.00,VWS V14.01,2013-01-21 15:23:00,
2013-01-21 09:28:00,-8.7,-16.7,30.44,West,277,1.0,8.0,67,0.00,,,0.00,VWS V14.01,2013-01-21 15:28:00,
2013-01-21 09:33:00,-8.6,-16.6,30.44,NW,320,0.0,11.0,67,0.00,,,0.00,VWS V14.01,2013-01-21 15:33:00,
2013-01-21 09:38:00,-8.6,-16.6,30.45,West,268,4.0,11.0,67,0.00,,,0.00,VWS V14.01,2013-01-21 15:38:00,
2013-01-21 09:44:00,-8.4,-16.4,30.45,WSW,258,0.0,11.0,67,0.00,,,0.00,VWS V14.01,2013-01-21 15:44:00,
2013-01-21 09:49:00,-8.3,-16.3,30.45,WNW,291,3.0,12.0,67,0.00,,,0.00,VWS V14.01,2013-01-21 15:49:00,
2013-01-21 09:54:00,-8.3,-16.3,30.45,WNW,292,2.0,12.0,67,0.00,,,0.00,VWS V14.01,2013-01-21 15:54:00,
2013-01-21 09:59:00,-8.2,-15.9,30.45,WNW,286,7.0,12.0,68,0.00,,,0.00,VWS V14.01,2013-01-21 15:59:00,
2013-01-21 10:04:00,-8.1,-15.8,30.45,West,270,2.0,9.0,68,0.00,,,0.00,VWS V14.01,2013-01-21 16:04:00,
2013-01-21 10:09:00,-8.1,-16.1,30.45,West,280,7.0,9.0,67,0.00,,,0.00,VWS V14.01,2013-01-21 16:09:00,
2013-01-21 10:14:00,-8.0,-15.7,30.45,WNW,282,3.0,9.0,68,0.00,,,0.00,VWS V14.01,2013-01-21 16:14:00,
2013-01-21 10:19:00,-7.7,-15.4,30.45,WSW,258,9.0,10.0,68,0.00,,,0.00,VWS V14.01,2013-01-21 16:19:00,
2013-01-21 10:24:00,-7.6,-15.6,30.45,WNW,285,2.0,10.0,67,0.00,,,0.00,VWS V14.01,2013-01-21 16:24:00,
2013-01-21 10:29:00,-7.6,-15.9,30.45,West,278,3.0,10.0,66,0.00,,,0.00,VWS V14.01,2013-01-21 16:29:00,
2013-01-21 10:35:00,-7.6,-15.9,30.45,WNW,284,2.0,10.0,66,0.00,,,0.00,VWS V14.01,2013-01-21 16:35:00,
2013-01-21 10:40:00,-7.5,-15.8,30.45,WNW,283,5.0,10.0,66,0.00,,,0.00,VWS V14.01,2013-01-21 16:40:00,
2013-01-21 10:45:00,-7.4,-16.0,30.45,West,276,5.0,13.0,65,0.00,,,0.00,VWS V14.01,2013-01-21 16:45:00,
2013-01-21 10:50:00,-7.1,-15.8,30.45,West,274,3.0,13.0,65,0.00,,,0.00,VWS V14.01,2013-01-21 16:50:00,
2013-01-21 10:55:00,-6.7,-15.1,30.45,West,271,6.0,13.0,66,0.00,,,0.00,VWS V14.01,2013-01-21 16:55:00,
2013-01-21 11:00:00,-6.6,-15.3,30.45,West,280,5.0,5.0,65,0.00,,,0.00,VWS V14.01,2013-01-21 17:00:00,
2013-01-21 11:05:00,-6.5,-15.5,30.45,West,272,0.0,9.0,64,0.00,,,0.00,VWS V14.01,2013-01-21 17:05:00,
2013-01-21 11:10:00,-6.5,-15.5,30.45,West,276,3.0,15.0,64,0.00,,,0.00,VWS V14.01,2013-01-21 17:10:00,
2013-01-21 11:15:00,-6.3,-15.3,30.45,West,261,3.0,15.0,64,0.00,,,0.00,VWS V14.01,2013-01-21 17:15:00,
2013-01-21 11:20:00,-6.2,-15.2,30.44,WSW,249,3.0,15.0,64,0.00,,,0.00,VWS V14.01,2013-01-21 17:20:00,
2013-01-21 11:25:00,-6.0,-15.0,30.44,WNW,294,3.0,15.0,64,0.00,,,0.00,VWS V14.01,2013-01-21 17:25:00,
2013-01-21 11:30:00,-6.2,-15.5,30.44,West,260,8.0,12.0,63,0.00,,,0.00,VWS V14.01,2013-01-21 17:30:00,
2013-01-21 11:35:00,-6.1,-15.1,30.44,West,274,6.0,12.0,64,0.00,,,0.00,VWS V14.01,2013-01-21 17:35:00,
2013-01-21 11:41:00,-6.1,-15.4,30.44,WNW,291,7.0,12.0,63,0.00,,,0.00,VWS V14.01,2013-01-21 17:41:00,
2013-01-21 11:46:00,-5.9,-14.9,30.43,WNW,292,4.0,12.0,64,0.00,,,0.00,VWS V14.01,2013-01-21 17:46:00,
2013-01-21 11:51:00,-5.9,-15.2,30.43,WSW,255,5.0,12.0,63,0.00,,,0.00,VWS V14.01,2013-01-21 17:51:00,
2013-01-21 11:56:00,-5.8,-14.8,30.42,WSW,247,7.0,12.0,64,0.00,,,0.00,VWS V14.01,2013-01-21 17:56:00,
2013-01-21 12:01:00,-5.5,-14.5,30.42,West,275,3.0,4.0,64,0.00,,,0.00,VWS V14.01,2013-01-21 18:01:00,
2013-01-21 12:06:00,-5.4,-14.4,30.42,West,279,7.0,8.0,64,0.00,,,0.00,VWS V14.01,2013-01-21 18:06:00,
2013-01-21 12:11:00,-5.3,-14.6,30.42,WNW,291,3.0,10.0,63,0.00,,,0.00,VWS V14.01,2013-01-21 18:11:00,
2013-01-21 12:16:00,-5.5,-15.1,30.42,WSW,246,4.0,17.0,62,0.00,,,0.00,VWS V14.01,2013-01-21 18:16:00,
2013-01-21 12:21:00,-5.4,-14.7,30.42,WNW,295,9.0,17.0,63,0.00,,,0.00,VWS V14.01,2013-01-21 18:21:00,
2013-01-21 12:26:00,-5.2,-14.6,30.41,West,270,3.0,17.0,63,0.00,,,0.00,VWS V14.01,2013-01-21 18:26:00,
2013-01-21 12:31:00,-4.9,-14.3,30.41,SW,228,6.0,8.0,63,0.00,,,0.00,VWS V14.01,2013-01-21 18:31:00,
2013-01-21 12:37:00,-4.7,-14.1,30.41,West,268,6.0,10.0,63,0.00,,,0.00,VWS V14.01,2013-01-21 18:37:00,
2013-01-21 12:42:00,-4.7,-14.4,30.41,West,262,7.0,10.0,62,0.00,,,0.00,VWS V14.01,2013-01-21 18:42:00,
2013-01-21 12:47:00,-4.8,-14.5,30.40,West,262,4.0,12.0,62,0.00,,,0.00,VWS V14.01,2013-01-21 18:47:00,
2013-01-21 12:52:00,-4.7,-14.4,30.40,WNW,287,3.0,14.0,62,0.00,,,0.00,VWS V14.01,2013-01-21 18:52:00,
2013-01-21 12:57:00,-4.7,-14.4,30.40,WSW,242,1.0,14.0,62,0.00,,,0.00,VWS V14.01,2013-01-21 18:57:00,
2013-01-21 13:02:00,-4.4,-14.1,30.40,WNW,294,1.0,7.0,62,0.00,,,0.00,VWS V14.01,2013-01-21 19:02:00,
2013-01-21 13:07:00,-4.3,-14.0,30.40,WNW,290,8.0,8.0,62,0.00,,,0.00,VWS V14.01,2013-01-21 19:07:00,
2013-01-21 13:12:00,-4.1,-13.5,30.40,WNW,287,3.0,8.0,63,0.00,,,0.00,VWS V14.01,2013-01-21 19:12:00,
2013-01-21 13:18:00,-3.9,-13.6,30.40,NNW,335,2.0,14.0,62,0.00,,,0.00,VWS V14.01,2013-01-21 19:18:00,
2013-01-21 13:23:00,-3.8,-13.9,30.39,WNW,289,8.0,14.0,61,0.00,,,0.00,VWS V14.01,2013-01-21 19:23:00,
2013-01-21 13:28:00,-4.0,-13.7,30.39,NW,308,8.0,14.0,62,0.00,,,0.00,VWS V14.01,2013-01-21 19:28:00,
2013-01-21 13:33:00,-4.0,-13.7,30.39,WNW,288,4.0,9.0,62,0.00,,,0.00,VWS V14.01,2013-01-21 19:33:00,
2013-01-21 13:38:00,-3.9,-13.6,30.39,West,273,8.0,12.0,62,0.00,,,0.00,VWS V14.01,2013-01-21 19:38:00,
2013-01-21 13:43:00,-4.1,-14.1,30.39,WNW,295,4.0,13.0,61,0.00,,,0.00,VWS V14.01,2013-01-21 19:43:00,
2013-01-21 13:48:00,-4.0,-13.7,30.39,West,274,5.0,13.0,62,0.00,,,0.00,VWS V14.01,2013-01-21 19:48:00,
2013-01-21 13:53:00,-4.0,-13.7,30.39,West,277,7.0,13.0,62,0.00,,,0.00,VWS V14.01,2013-01-21 19:53:00,
2013-01-21 13:58:00,-3.9,-13.6,30.39,West,277,5.0,14.0,62,0.00,,,0.00,VWS V14.01,2013-01-21 19:58:00,
2013-01-21 14:04:00,-3.7,-13.4,30.39,West,276,8.0,9.0,62,0.00,,,0.00,VWS V14.01,2013-01-21 20:04:00,
2013-01-21 14:09:00,-3.8,-13.5,30.39,SW,233,7.0,12.0,62,0.00,,,0.00,VWS V14.01,2013-01-21 20:09:00,
2013-01-21 14:14:00,-3.7,-13.4,30.39,WSW,257,6.0,12.0,62,0.00,,,0.00,VWS V14.01,2013-01-21 20:14:00,
2013-01-21 14:19:00,-3.6,-13.3,30.39,West,281,10.0,12.0,62,0.00,,,0.00,VWS V14.01,2013-01-21 20:19:00,
2013-01-21 14:24:00,-3.9,-13.6,30.39,WNW,295,3.0,12.0,62,0.00,,,0.00,VWS V14.01,2013-01-21 20:24:00,
2013-01-21 14:29:00,-3.8,-13.2,30.39,NW,314,2.0,12.0,63,0.00,,,0.00,VWS V14.01,2013-01-21 20:29:00,
2013-01-21 14:34:00,-3.6,-13.0,30.39,West,280,5.0,10.0,63,0.00,,,0.00,VWS V14.01,2013-01-21 20:34:00,
2013-01-21 14:40:00,-3.5,-13.2,30.39,West,266,7.0,11.0,62,0.00,,,0.00,VWS V14.01,2013-01-21 20:40:00,
2013-01-21 14:45:00,-3.7,-13.4,30.39,WNW,282,7.0,14.0,62,0.00,,,0.00,VWS V14.01,2013-01-21 20:45:00,
2013-01-21 14:50:00,-3.7,-13.4,30.39,WNW,283,5.0,14.0,62,0.00,,,0.00,VWS V14.01,2013-01-21 20:50:00,
2013-01-21 14:55:00,-4.0,-13.7,30.39,West,278,4.0,15.0,62,0.00,,,0.00,VWS V14.01,2013-01-21 20:55:00,
2013-01-21 15:00:00,-4.1,-13.5,30.39,West,261,5.0,11.0,63,0.00,,,0.00,VWS V14.01,2013-01-21 21:00:00,
2013-01-21 15:05:00,-4.1,-13.2,30.39,West,268,9.0,11.0,64,0.00,,,0.00,VWS V14.01,2013-01-21 21:05:00,
2013-01-21 15:10:00,-4.1,-12.9,30.39,WSW,256,3.0,12.0,65,0.00,,,0.00,VWS V14.01,2013-01-21 21:10:00,
2013-01-21 15:15:00,-3.9,-12.7,30.39,West,278,3.0,12.0,65,0.00,,,0.00,VWS V14.01,2013-01-21 21:15:00,
2013-01-21 15:20:00,-3.7,-12.5,30.39,WSW,242,5.0,12.0,65,0.00,,,0.00,VWS V14.01,2013-01-21 21:20:00,
2013-01-21 15:25:00,-3.7,-12.8,30.39,WNW,282,4.0,12.0,64,0.00,,,0.00,VWS V14.01,2013-01-21 21:25:00,
2013-01-21 15:30:00,-3.7,-13.1,30.39,WSW,240,8.0,8.0,63,0.00,,,0.00,VWS V14.01,2013-01-21 21:30:00,
2013-01-21 15:35:00,-3.7,-12.8,30.39,West,272,2.0,8.0,64,0.00,,,0.00,VWS V14.01,2013-01-21 21:35:00,
2013-01-21 15:40:00,-3.5,-12.6,30.39,WSW,243,7.0,10.0,64,0.00,,,0.00,VWS V14.01,2013-01-21 21:40:00,
2013-01-21 15:45:00,-3.7,-13.4,30.39,WNW,286,4.0,15.0,62,0.00,,,0.00,VWS V14.01,2013-01-21 21:45:00,
2013-01-21 15:50:00,-3.8,-13.5,30.39,West,274,5.0,15.0,62,0.00,,,0.00,VWS V14.01,2013-01-21 21:50:00,
2013-01-21 15:55:00,-4.0,-13.7,30.39,WSW,256,2.0,15.0,62,0.00,,,0.00,VWS V14.01,2013-01-21 21:55:00,
2013-01-21 16:01:00,-4.0,-13.4,30.39,WSW,246,3.0,6.0,63,0.00,,,0.00,VWS V14.01,2013-01-21 22:01:00,
2013-01-21 16:06:00,-3.9,-13.3,30.39,WNW,303,6.0,11.0,63,0.00,,,0.00,VWS V14.01,2013-01-21 22:06:00,
2013-01-21 16:11:00,-4.0,-13.4,30.38,WSW,244,6.0,11.0,63,0.00,,,0.00,VWS V14.01,2013-01-21 22:11:00,
2013-01-21 16:16:00,-4.1,-13.2,30.38,NW,320,6.0,11.0,64,0.00,,,0.00,VWS V14.01,2013-01-21 22:16:00,
2013-01-21 16:21:00,-4.2,-13.3,30.38,WNW,285,5.0,11.0,64,0.00,,,0.00,VWS V14.01,2013-01-21 22:21:00,
2013-01-21 16:26:00,-4.3,-13.4,30.38,West,266,3.0,13.0,64,0.00,,,0.00,VWS V14.01,2013-01-21 22:26:00,
2013-01-21 16:31:00,-4.4,-13.5,30.38,West,261,4.0,9.0,64,0.00,,,0.00,VWS V14.01,2013-01-21 22:31:00,
2013-01-21 16:36:00,-4.5,-13.6,30.38,West,263,8.0,13.0,64,0.00,,,0.00,VWS V14.01,2013-01-21 22:36:00,
2013-01-21 16:41:00,-4.7,-13.8,30.38,West,278,5.0,13.0,64,0.00,,,0.00,VWS V14.01,2013-01-21 22:41:00,
2013-01-21 16:46:00,-4.8,-13.6,30.39,WSW,239,4.0,13.0,65,0.00,,,0.00,VWS V14.01,2013-01-21 22:46:00,
2013-01-21 16:51:00,-4.8,-13.2,30.39,SW,233,5.0,13.0,66,0.00,,,0.00,VWS V14.01,2013-01-21 22:51:00,
2013-01-21 16:56:00,-4.8,-13.2,30.39,WNW,290,6.0,13.0,66,0.00,,,0.00,VWS V14.01,2013-01-21 22:56:00,
2013-01-21 17:01:00,-4.9,-13.0,30.39,West,262,0.0,4.0,67,0.00,,,0.00,VWS V14.01,2013-01-21 23:01:00,
2013-01-21 17:06:00,-5.0,-13.4,30.39,WSW,244,6.0,16.0,66,0.00,,,0.00,VWS V14.01,2013-01-21 23:06:00,
2013-01-21 17:11:00,-5.2,-13.6,30.39,WSW,244,4.0,16.0,66,0.00,,,0.00,VWS V14.01,2013-01-21 23:11:00,
2013-01-21 17:16:00,-5.2,-13.3,30.39,West,275,0.0,16.0,67,0.00,,,0.00,VWS V14.01,2013-01-21 23:16:00,
2013-01-21 17:22:00,-5.2,-13.3,30.39,SW,226,3.0,16.0,67,0.00,,,0.00,VWS V14.01,2013-01-21 23:22:00,
2013-01-21 17:27:00,-5.2,-13.0,30.39,West,267,5.0,16.0,68,0.00,,,0.00,VWS V14.01,2013-01-21 23:27:00,
2013-01-21 17:32:00,-5.3,-13.1,30.39,West,270,6.0,11.0,68,0.00,,,0.00,VWS V14.01,2013-01-21 23:32:00,
2013-01-21 17:37:00,-5.4,-13.2,30.39,WSW,247,14.0,14.0,68,0.00,,,0.00,VWS V14.01,2013-01-21 23:37:00,
2013-01-21 17:42:00,-5.4,-13.2,30.40,WSW,242,3.0,14.0,68,0.00,,,0.00,VWS V14.01,2013-01-21 23:42:00,
2013-01-21 17:47:00,-5.4,-13.2,30.39,West,272,2.0,14.0,68,0.00,,,0.00,VWS V14.01,2013-01-21 23:47:00,
2013-01-21 17:52:00,-5.4,-13.2,30.39,West,264,2.0,14.0,68,0.00,,,0.00,VWS V14.01,2013-01-21 23:52:00,
2013-01-21 17:57:00,-5.4,-13.2,30.39,WSW,250,7.0,14.0,68,0.00,,,0.00,VWS V14.01,2013-01-21 23:57:00,
2013-01-21 18:02:00,-5.4,-13.2,30.39,West,262,4.0,8.0,68,0.00,,,0.00,VWS V14.01,2013-01-22 00:02:00,
2013-01-21 18:07:00,-5.4,-13.2,30.40,WNW,292,2.0,10.0,68,0.00,,,0.00,VWS V14.01,2013-01-22 00:07:00,
2013-01-21 18:12:00,-5.4,-12.9,30.40,WSW,249,3.0,10.0,69,0.00,,,0.00,VWS V14.01,2013-01-22 00:12:00,
2013-01-21 18:17:00,-5.4,-12.9,30.40,WNW,284,2.0,10.0,69,0.00,,,0.00,VWS V14.01,2013-01-22 00:17:00,
2013-01-21 18:22:00,-5.4,-12.9,30.40,WNW,296,2.0,10.0,69,0.00,,,0.00,VWS V14.01,2013-01-22 00:22:00,
2013-01-21 18:28:00,-5.4,-12.9,30.40,WSW,242,6.0,10.0,69,0.00,,,0.00,VWS V14.01,2013-01-22 00:28:00,
2013-01-21 18:33:00,-5.4,-12.9,30.40,WNW,285,7.0,9.0,69,0.00,,,0.00,VWS V14.01,2013-01-22 00:33:00,
2013-01-21 18:38:00,-5.4,-12.9,30.40,WSW,247,1.0,9.0,69,0.00,,,0.00,VWS V14.01,2013-01-22 00:38:00,
2013-01-21 18:43:00,-5.4,-12.6,30.40,WSW,247,1.0,9.0,70,0.00,,,0.00,VWS V14.01,2013-01-22 00:43:00,
2013-01-21 18:48:00,-5.3,-12.6,30.40,WSW,246,2.0,9.0,70,0.00,,,0.00,VWS V14.01,2013-01-22 00:48:00,
2013-01-21 18:53:00,-5.3,-12.6,30.40,WSW,256,2.0,9.0,70,0.00,,,0.00,VWS V14.01,2013-01-22 00:53:00,
2013-01-21 18:58:00,-5.4,-12.6,30.41,WSW,254,1.0,9.0,70,0.00,,,0.00,VWS V14.01,2013-01-22 00:58:00,
2013-01-21 19:03:00,-5.4,-12.9,30.41,WSW,250,1.0,5.0,69,0.00,,,0.00,VWS V14.01,2013-01-22 01:03:00,
2013-01-21 19:08:00,-5.3,-12.8,30.41,West,260,2.0,7.0,69,0.00,,,0.00,VWS V14.01,2013-01-22 01:08:00,
2013-01-21 19:13:00,-5.3,-12.8,30.41,West,263,3.0,7.0,69,0.00,,,0.00,VWS V14.01,2013-01-22 01:13:00,
2013-01-21 19:18:00,-5.4,-12.9,30.41,WSW,255,5.0,8.0,69,0.00,,,0.00,VWS V14.01,2013-01-22 01:18:00,
2013-01-21 19:23:00,-5.4,-12.6,30.41,WSW,247,5.0,8.0,70,0.00,,,0.00,VWS V14.01,2013-01-22 01:23:00,
2013-01-21 19:29:00,-5.4,-12.6,30.41,WSW,241,1.0,8.0,70,0.00,,,0.00,VWS V14.01,2013-01-22 01:29:00,
2013-01-21 19:34:00,-5.4,-12.6,30.41,WSW,251,4.0,6.0,70,0.00,,,0.00,VWS V14.01,2013-01-22 01:34:00,
2013-01-21 19:39:00,-5.3,-12.6,30.41,West,274,5.0,6.0,70,0.00,,,0.00,VWS V14.01,2013-01-22 01:39:00,
2013-01-21 19:44:00,-5.4,-12.6,30.41,West,262,2.0,6.0,70,0.00,,,0.00,VWS V14.01,2013-01-22 01:44:00,
2013-01-21 19:49:00,-5.4,-12.6,30.41,West,270,2.0,6.0,70,0.00,,,0.00,VWS V14.01,2013-01-22 01:49:00,
2013-01-21 19:54:00,-5.4,-12.4,30.41,West,270,3.0,6.0,71,0.00,,,0.00,VWS V14.01,2013-01-22 01:54:00,
2013-01-21 19:59:00,-5.4,-12.4,30.41,West,263,1.0,6.0,71,0.00,,,0.00,VWS V14.01,2013-01-22 01:59:00,
2013-01-21 20:04:00,-5.4,-12.4,30.41,West,270,1.0,3.0,71,0.00,,,0.00,VWS V14.01,2013-01-22 02:04:00,
2013-01-21 20:09:00,-5.4,-12.4,30.41,West,262,3.0,5.0,71,0.00,,,0.00,VWS V14.01,2013-01-22 02:09:00,
2013-01-21 20:14:00,-5.3,-12.3,30.41,West,260,2.0,5.0,71,0.00,,,0.00,VWS V14.01,2013-01-22 02:14:00,
2013-01-21 20:19:00,-5.3,-12.3,30.41,WSW,252,1.0,5.0,71,0.00,,,0.00,VWS V14.01,2013-01-22 02:19:00,
2013-01-21 20:24:00,-5.3,-12.3,30.41,West,259,2.0,5.0,71,0.00,,,0.00,VWS V14.01,2013-01-22 02:24:00,
2013-01-21 20:29:00,-5.3,-12.3,30.41,WSW,254,0.0,5.0,71,0.00,,,0.00,VWS V14.01,2013-01-22 02:29:00,
2013-01-21 20:34:00,-5.3,-12.3,30.41,WSW,254,2.0,3.0,71,0.00,,,0.00,VWS V14.01,2013-01-22 02:34:00,
2013-01-21 20:40:00,-5.3,-12.3,30.41,WSW,253,2.0,5.0,71,0.00,,,0.00,VWS V14.01,2013-01-22 02:40:00,
2013-01-21 20:45:00,-5.3,-12.3,30.41,WSW,253,0.0,5.0,71,0.00,,,0.00,VWS V14.01,2013-01-22 02:45:00,
2013-01-21 20:50:00,-5.3,-12.3,30.41,WSW,254,1.0,5.0,71,0.00,,,0.00,VWS V14.01,2013-01-22 02:50:00,
2013-01-21 20:55:00,-5.3,-12.3,30.41,WSW,254,3.0,5.0,71,0.00,,,0.00,VWS V14.01,2013-01-22 02:55:00,
2013-01-21 21:00:00,-5.3,-12.3,30.41,WSW,254,0.0,1.0,71,0.00,,,0.00,VWS V14.01,2013-01-22 03:00:00,
2013-01-21 21:05:00,-5.2,-12.2,30.41,WSW,254,0.0,3.0,71,0.00,,,0.00,VWS V14.01,2013-01-22 03:05:00,
2013-01-21 21:10:00,-5.2,-11.9,30.41,WSW,254,0.0,3.0,72,0.00,,,0.00,VWS V14.01,2013-01-22 03:10:00,
2013-01-21 21:15:00,-5.1,-11.8,30.41,WSW,254,1.0,3.0,72,0.00,,,0.00,VWS V14.01,2013-01-22 03:15:00,
2013-01-21 21:20:00,-5.1,-12.1,30.41,WSW,254,0.0,4.0,71,0.00,,,0.00,VWS V14.01,2013-01-22 03:20:00,
2013-01-21 21:26:00,-5.1,-11.8,30.41,WSW,254,0.0,4.0,72,0.00,,,0.00,VWS V14.01,2013-01-22 03:26:00,
2013-01-21 21:31:00,-5.1,-11.8,30.41,WSW,254,0.0,3.0,72,0.00,,,0.00,VWS V14.01,2013-01-22 03:31:00,
2013-01-21 21:36:00,-5.1,-11.8,30.41,WSW,253,0.0,3.0,72,0.00,,,0.00,VWS V14.01,2013-01-22 03:36:00,
2013-01-21 21:41:00,-5.0,-11.7,30.41,WSW,254,1.0,3.0,72,0.00,,,0.00,VWS V14.01,2013-01-22 03:41:00,
2013-01-21 21:46:00,-5.0,-11.7,30.41,WSW,254,1.0,3.0,72,0.00,,,0.00,VWS V14.01,2013-01-22 03:46:00,
2013-01-21 21:51:00,-5.0,-11.7,30.41,WSW,254,0.0,3.0,72,0.00,,,0.00,VWS V14.01,2013-01-22 03:51:00,
2013-01-21 21:56:00,-5.1,-11.8,30.41,WSW,254,0.0,3.0,72,0.00,,,0.00,VWS V14.01,2013-01-22 03:56:00,
2013-01-21 22:01:00,-5.2,-11.9,30.41,WSW,253,3.0,4.0,72,0.00,,,0.00,VWS V14.01,2013-01-22 04:01:00,
2013-01-21 22:06:00,-5.2,-11.9,30.41,WSW,253,0.0,4.0,72,0.00,,,0.00,VWS V14.01,2013-01-22 04:06:00,
2013-01-21 22:11:00,-5.2,-11.9,30.41,WSW,253,2.0,4.0,72,0.00,,,0.00,VWS V14.01,2013-01-22 04:11:00,
2013-01-21 22:17:00,-5.2,-11.9,30.41,WSW,253,2.0,4.0,72,0.00,,,0.00,VWS V14.01,2013-01-22 04:17:00,
2013-01-21 22:22:00,-5.2,-11.6,30.41,WSW,253,0.0,4.0,73,0.00,,,0.00,VWS V14.01,2013-01-22 04:22:00,
2013-01-21 22:27:00,-5.2,-11.6,30.41,WSW,253,0.0,4.0,73,0.00,,,0.00,VWS V14.01,2013-01-22 04:27:00,
2013-01-21 22:32:00,-5.1,-11.5,30.42,WSW,253,0.0,0.0,73,0.00,,,0.00,VWS V14.01,2013-01-22 04:32:00,
2013-01-21 22:37:00,-5.0,-11.4,30.41,WSW,253,0.0,1.0,73,0.00,,,0.00,VWS V14.01,2013-01-22 04:37:00,
2013-01-21 22:42:00,-5.1,-11.5,30.42,WSW,253,3.0,4.0,73,0.00,,,0.00,VWS V14.01,2013-01-22 04:42:00,
2013-01-21 22:47:00,-5.1,-11.5,30.42,WSW,253,0.0,4.0,73,0.00,,,0.00,VWS V14.01,2013-01-22 04:47:00,
2013-01-21 22:52:00,-5.1,-11.5,30.42,WSW,253,0.0,4.0,73,0.00,,,0.00,VWS V14.01,2013-01-22 04:52:00,
2013-01-21 22:57:00,-5.1,-11.5,30.42,WSW,253,0.0,4.0,73,0.00,,,0.00,VWS V14.01,2013-01-22 04:57:00,
2013-01-21 23:00:00,-5.1,-11.5,30.42,WSW,253,0.0,0.0,73,0.00,,,0.00,VWS V14.01,2013-01-22 05:00:00,
2013-01-21 23:01:00,-5.1,-11.5,30.41,WSW,253,0.0,1.0,73,0.00,,,0.00,VWS V14.01,2013-01-22 05:01:00,
2013-01-21 23:07:00,-5.2,-11.6,30.41,WSW,253,0.0,3.0,73,0.00,,,0.00,VWS V14.01,2013-01-22 05:07:00,
2013-01-21 23:12:00,-5.2,-11.6,30.41,WSW,253,1.0,3.0,73,0.00,,,0.00,VWS V14.01,2013-01-22 05:12:00,
2013-01-21 23:17:00,-5.3,-11.7,30.41,WSW,253,0.0,3.0,73,0.00,,,0.00,VWS V14.01,2013-01-22 05:17:00,
2013-01-21 23:22:00,-5.3,-11.7,30.41,WSW,253,0.0,4.0,73,0.00,,,0.00,VWS V14.01,2013-01-22 05:22:00,
2013-01-21 23:27:00,-5.3,-11.7,30.41,WSW,253,2.0,4.0,73,0.00,,,0.00,VWS V14.01,2013-01-22 05:27:00,
2013-01-21 23:32:00,-5.3,-11.7,30.41,WSW,255,2.0,5.0,73,0.00,,,0.00,VWS V14.01,2013-01-22 05:32:00,
2013-01-21 23:37:00,-5.3,-11.7,30.41,West,280,3.0,6.0,73,0.00,,,0.00,VWS V14.01,2013-01-22 05:37:00,
2013-01-21 23:42:00,-5.3,-11.7,30.41,West,280,0.0,6.0,73,0.00,,,0.00,VWS V14.01,2013-01-22 05:42:00,
2013-01-21 23:47:00,-5.4,-11.8,30.41,WNW,283,3.0,7.0,73,0.00,,,0.00,VWS V14.01,2013-01-22 05:47:00,
2013-01-21 23:52:00,-5.4,-11.8,30.41,WNW,285,0.0,8.0,73,0.00,,,0.00,VWS V14.01,2013-01-22 05:52:00,
2013-01-21 23:57:00,-5.5,-11.9,30.41,WNW,301,2.0,8.0,73,0.00,,,0.00,VWS V14.01,2013-01-22 05:57:00,